map of EDL home
Great Circle Mapper logo
EDL - Airport
Location
City:  Eldoret, Kenya
Name:Eldoret International Airport
ICAO / IATA:HKEL / EDL

Details
Type:Airport (Aerodrome, Airfield)
Use:International (customs port of entry)
Latitude:024'16"N (0.404458)
Longitude:3514'20"E (35.238928)
Datum:WGS 1984
Elevation:6941 ft (2116 m)
Variation:1.18E (WMM2015 magnetic declination)
0.05 annual change
Runways:1
Longest:11483 × 148 ft (3500 × 45 m), paved

Time
Time Zone:UTC+3
Local Time:

Weather
METAR:HKEL 040500Z 03005KT CAVOK 15/12
TAF:HKEL 040500Z 0406/0506 06010KT 9999 FEW022CB SCT023
TEMPO 0412/0418 -SHRA FEW018CB SCT019 BKN090
BECMG 0420/0423 09005KT CAVOK
TEMPO 0500/0506 00000KT 9999 FEW017 SCT090

Related Locations
Nearby:
Farthest:NHV: 11779 mi / 18956 km
Nuku Hiva, Marquesas Islands, PF

Find:

   beyond  
but within

Other Information
Maps:
NOTAMs:
Links:
Sources:

  
flag of Kenya   

Sectional Chart

Flight Planning
at skyvector.com

Satellite Image

Google Maps Satellite view

 

Copyright © 2004-2015 Karl L. Swartz. All rights reserved.
The Great Circle Mapper name and logo are trademarks of the Great Circle Mapper.
All other trademarks mentioned herein belong to their respective owners.
Please see credits for attibutions and further copyright information.

  Follow gcmap on Facebook Follow gcmap on Twitter Follow gcmap on Google+

hCard Microformat

Geo Microformat